Home > Weather > Palestine > Past weeks

Flag for USA Past Weather in Palestine, Texas, USA — Yesterday and Last 2 Weeks

Now
96 °F

Sunny.


Feels Like: 102 °F
Forecast: 77 / 97 °F
Wind: 6 mph from Southeast

Location: Palestine Municipal Airport

Current Time: Jul 24, 2016 at 5:24:13 PM

Latest Report: Jul 24, 2016 at 4:55 PM


Visibility: 10 mi

Pressure: 29.92 "Hg

Humidity: 42%

Dew Point: 69 °F

Location of PalestineLocation

Past Weather in Palestine — Graph

°F

Palestine Temperature Yesterday

Maximum temperature yesterday: 98 °F (at 4:35 PM)
Minimum temperature yesterday: 77 °F (at 6:55 AM)
Average temperature yesterday: 87 °F

High & Low Weather Summary for the Past Weeks

 TemperatureHumidityPressure
High98 °F (Jul 23, 4:35 PM)97% (Jul 14, 7:15 AM)30.25 "Hg (Jul 14, 7:15 AM)
Low74 °F (Jul 17, 6:55 AM)38% (Jul 21, 6:15 PM)29.88 "Hg (Jul 11, 6:35 PM)
Average85 °F69%30.04 "Hg
* Reported Jul 9 4:15 PM — Jul 24 4:15 PM, Palestine, Weather by CustomWeather, © 2016

Note: Actual official high and low records may vary slightly from our data, if they occured in-between our weather recording intervals... More about our weather records

Advertising

Palestine Weather History for the Previous 24 Hours

Scroll right to see more
 ConditionsComfort  
Time TempWeatherWind HumidityBarometerVisibility
4:15 PM
Sun, Jul 24
96 °FScattered clouds.No wind41%29.92 "Hg10 mi
3:55 PM96 °FSunny.7 mph47%29.93 "Hg10 mi
3:35 PM95 °FSunny.3 mph49%29.94 "Hg10 mi
3:15 PM94 °FSunny.No wind48%29.95 "Hg10 mi
2:55 PM94 °FSunny.5 mph47%29.95 "Hg10 mi
2:35 PM95 °FSunny.5 mph51%29.96 "Hg10 mi
2:15 PM92 °FSunny.3 mph56%29.97 "Hg10 mi
1:55 PM91 °FSunny.No wind58%29.98 "Hg10 mi
1:35 PM92 °FSunny.5 mph55%29.98 "Hg10 mi
1:15 PM91 °FSunny.6 mph56%29.99 "Hg10 mi
12:55 PM92 °FSunny.5 mph54%29.99 "Hg10 mi
12:35 PM91 °FScattered clouds.3 mph59%30.00 "Hg10 mi
12:15 PM91 °FSunny.No wind58%30.00 "Hg10 mi
11:55 AM90 °FSunny.6 mph59%30.01 "Hg10 mi
11:35 AM89 °FSunny.5 mph63%30.01 "Hg10 mi
11:15 AM89 °FSunny.8 mph65%30.01 "Hg10 mi
10:55 AM87 °FSunny.7 mph68%30.01 "Hg10 mi
10:35 AM87 °FScattered clouds.7 mph69%30.01 "Hg10 mi
9:55 AM84 °FSunny.7 mph78%30.00 "Hg10 mi
9:15 AM82 °FSunny.6 mph84%30.00 "Hg10 mi
8:55 AM82 °FSunny.7 mph84%30.00 "Hg10 mi
8:15 AM80 °FSunny.5 mph87%29.99 "Hg10 mi
7:55 AM79 °FSunny.3 mph89%29.99 "Hg7 mi
7:35 AM78 °FSunny.No wind90%29.99 "Hg10 mi
7:15 AM78 °FClear.3 mph91%29.98 "Hg10 mi
6:55 AM77 °FClear.3 mph92%29.98 "Hg10 mi
6:15 AM78 °FClear.3 mph90%29.97 "Hg10 mi
5:55 AM78 °FClear.No wind90%29.96 "Hg10 mi
5:35 AM78 °FClear.No wind89%29.96 "Hg10 mi
5:15 AM78 °FClear.No wind89%29.96 "Hg10 mi
4:55 AM79 °FClear.No wind88%29.95 "Hg10 mi
4:15 AM79 °FClear.No wind87%29.95 "Hg10 mi
3:55 AM80 °FClear.3 mph86%29.95 "Hg10 mi
3:35 AM80 °FClear.No wind86%29.95 "Hg10 mi
3:15 AM80 °FClear.No wind83%29.95 "Hg10 mi
2:55 AM81 °FClear.No wind83%29.94 "Hg10 mi
2:35 AM81 °FClear.No wind82%29.94 "Hg10 mi
2:15 AM81 °FClear.3 mph81%29.94 "Hg10 mi
1:55 AM81 °FClear.3 mph82%29.94 "Hg10 mi
1:15 AM82 °FClear.No wind79%29.94 "Hg10 mi
12:55 AM82 °FClear.3 mph76%29.94 "Hg10 mi
12:35 AM83 °FClear.5 mph75%29.94 "Hg10 mi
12:15 AM83 °FClear.6 mph76%29.94 "Hg10 mi
11:55 PM
Sat, Jul 23
83 °FClear.6 mph73%29.94 "Hg10 mi
11:35 PM84 °FPassing clouds.8 mph72%29.95 "Hg10 mi
11:15 PM85 °FPassing clouds.13 mph71%29.94 "Hg10 mi
10:55 PM86 °FClear.14 mph68%29.95 "Hg10 mi
10:35 PM86 °FClear.3 mph69%29.93 "Hg10 mi
10:15 PM86 °FClear.5 mph69%29.94 "Hg10 mi
9:55 PM85 °FClear.3 mph74%29.94 "Hg10 mi
9:35 PM85 °FClear.3 mph80%29.93 "Hg10 mi
8:55 PM86 °FSunny.3 mph77%29.92 "Hg10 mi
8:35 PM89 °FSunny.No wind69%29.91 "Hg10 mi
8:15 PM91 °FSunny.No wind61%29.91 "Hg10 mi
7:55 PM93 °FSunny.No wind55%29.90 "Hg10 mi
7:35 PM94 °FSunny.No wind50%29.89 "Hg10 mi
7:15 PM95 °FSunny.No wind48%29.88 "Hg10 mi
6:55 PM96 °FSunny.6 mph45%29.88 "Hg10 mi
6:35 PM96 °FSunny.5 mph45%29.89 "Hg10 mi
6:15 PM96 °FSunny.5 mph42%29.90 "Hg10 mi
5:55 PM97 °FSunny.5 mph42%29.90 "Hg10 mi
5:35 PM97 °FSunny.8 mph41%29.91 "Hg10 mi
5:15 PM97 °FSunny.7 mph42%29.92 "Hg10 mi
Weather by CustomWeather, © 2016

See weather overviewHow to use our weather pages